Time,TemperatureF,DewpointF,PressureIn,WindDirection,WindDirectionDegrees,WindSpeedMPH,WindSpeedGustMPH,Humidity,HourlyPrecipIn,Conditions,Clouds,dailyrainin,SoftwareType,DateUTC
2013-02-11 00:00:00,34.0,18.6,29.59,ESE,112,6.0,10.0,53,0.00,,,0.00,Weather View 32 v70,2013-02-11 05:00:00,
2013-02-11 00:05:00,34.0,19.1,29.59,ESE,112,6.0,10.0,54,0.00,,,0.00,Weather View 32 v70,2013-02-11 05:05:00,
2013-02-11 00:10:00,34.0,19.1,29.59,SE,135,4.0,10.0,54,0.00,,,0.00,Weather View 32 v70,2013-02-11 05:10:00,
2013-02-11 00:15:00,34.0,19.1,29.59,SE,135,6.0,10.0,54,0.00,,,0.00,Weather View 32 v70,2013-02-11 05:15:00,
2013-02-11 00:25:00,34.0,19.1,29.59,SE,135,6.0,10.0,54,0.00,,,0.00,Weather View 32 v70,2013-02-11 05:25:00,
2013-02-11 00:35:00,34.0,20.4,29.59,ENE,67,3.0,10.0,57,0.00,,,0.00,Weather View 32 v70,2013-02-11 05:35:00,
2013-02-11 00:40:00,34.0,20.8,29.58,ENE,67,3.0,10.0,58,0.00,,,0.00,Weather View 32 v70,2013-02-11 05:40:00,
2013-02-11 00:45:00,34.0,20.8,29.58,ESE,112,2.0,10.0,58,0.00,,,0.00,Weather View 32 v70,2013-02-11 05:45:00,
2013-02-11 00:50:00,34.0,20.8,29.58,ENE,67,6.0,9.0,58,0.00,,,0.00,Weather View 32 v70,2013-02-11 05:50:00,
2013-02-11 00:55:00,34.0,20.8,29.58,ENE,67,6.0,9.0,58,0.00,,,0.00,Weather View 32 v70,2013-02-11 05:55:00,
2013-02-11 01:00:00,33.0,20.6,29.58,NE,45,6.0,9.0,60,0.00,,,0.00,Weather View 32 v70,2013-02-11 06:00:00,
2013-02-11 01:05:00,33.0,20.6,29.57,East,90,0.0,9.0,60,0.00,,,0.00,Weather View 32 v70,2013-02-11 06:05:00,
2013-02-11 01:10:00,33.0,20.6,29.57,ENE,67,2.0,9.0,60,0.00,,,0.00,Weather View 32 v70,2013-02-11 06:10:00,
2013-02-11 01:15:00,33.0,21.0,29.57,ENE,67,1.0,9.0,61,0.00,,,0.00,Weather View 32 v70,2013-02-11 06:15:00,
2013-02-11 01:20:00,33.0,21.8,29.57,East,90,3.0,9.0,63,0.00,,,0.00,Weather View 32 v70,2013-02-11 06:20:00,
2013-02-11 01:25:00,33.0,21.4,29.57,SSW,202,0.0,8.0,62,0.00,,,0.00,Weather View 32 v70,2013-02-11 06:25:00,
2013-02-11 01:30:00,33.0,21.8,29.56,SSW,202,0.0,8.0,63,0.00,,,0.00,Weather View 32 v70,2013-02-11 06:30:00,
2013-02-11 01:35:00,33.0,21.8,29.56,SSW,202,0.0,8.0,63,0.00,,,0.00,Weather View 32 v70,2013-02-11 06:35:00,
2013-02-11 01:40:00,33.0,22.1,29.56,SW,225,0.0,8.0,64,0.00,,,0.00,Weather View 32 v70,2013-02-11 06:40:00,
2013-02-11 01:45:00,33.0,22.9,29.55,SW,225,2.0,8.0,66,0.00,,,0.00,Weather View 32 v70,2013-02-11 06:45:00,
2013-02-11 01:55:00,33.0,23.6,29.55,West,270,2.0,8.0,68,0.00,,,0.00,Weather View 32 v70,2013-02-11 06:55:00,
2013-02-11 02:00:00,32.0,24.6,29.55,West,270,0.0,8.0,74,0.01,,,0.01,Weather View 32 v70,2013-02-11 07:00:00,
2013-02-11 02:05:00,32.0,25.9,29.55,East,90,0.0,7.0,78,0.01,,,0.01,Weather View 32 v70,2013-02-11 07:05:00,
2013-02-11 02:10:00,32.0,27.4,29.55,NE,45,3.0,7.0,83,0.01,,,0.01,Weather View 32 v70,2013-02-11 07:10:00,
2013-02-11 02:15:00,31.0,27.0,29.55,NNE,22,3.0,7.0,85,0.01,,,0.01,Weather View 32 v70,2013-02-11 07:15:00,
2013-02-11 02:20:00,31.0,27.6,29.54,NNW,337,3.0,7.0,87,0.02,,,0.02,Weather View 32 v70,2013-02-11 07:20:00,
2013-02-11 02:25:00,31.0,28.7,29.54,NNW,337,0.0,6.0,91,0.02,,,0.02,Weather View 32 v70,2013-02-11 07:25:00,
2013-02-11 02:35:00,30.0,27.2,29.53,NW,315,0.0,6.0,89,0.04,,,0.04,Weather View 32 v70,2013-02-11 07:35:00,
2013-02-11 02:45:00,30.0,29.5,29.53,NNE,22,1.0,6.0,98,0.05,,,0.05,Weather View 32 v70,2013-02-11 07:45:00,
2013-02-11 02:50:00,30.0,30.0,29.53,NNE,22,2.0,6.0,100,0.05,,,0.05,Weather View 32 v70,2013-02-11 07:50:00,
2013-02-11 02:55:00,30.0,30.0,29.53,NNE,22,0.0,6.0,100,0.06,,,0.06,Weather View 32 v70,2013-02-11 07:55:00,
2013-02-11 03:00:00,30.0,30.0,29.52,East,90,0.0,6.0,100,0.05,,,0.06,Weather View 32 v70,2013-02-11 08:00:00,
2013-02-11 03:05:00,30.0,29.8,29.51,NE,45,0.0,6.0,99,0.06,,,0.07,Weather View 32 v70,2013-02-11 08:05:00,
2013-02-11 03:10:00,30.0,29.3,29.51,NE,45,2.0,6.0,97,0.07,,,0.08,Weather View 32 v70,2013-02-11 08:10:00,
2013-02-11 03:20:00,30.0,30.0,29.50,NE,45,1.0,6.0,100,0.07,,,0.09,Weather View 32 v70,2013-02-11 08:20:00,
2013-02-11 03:25:00,30.0,30.0,29.49,NE,45,0.0,6.0,100,0.08,,,0.10,Weather View 32 v70,2013-02-11 08:25:00,
2013-02-11 03:30:00,30.0,29.8,29.48,NE,45,0.0,6.0,99,0.08,,,0.11,Weather View 32 v70,2013-02-11 08:30:00,
2013-02-11 03:35:00,30.0,29.3,29.48,NE,45,0.0,6.0,97,0.08,,,0.12,Weather View 32 v70,2013-02-11 08:35:00,
2013-02-11 03:40:00,30.0,29.3,29.48,NE,45,0.0,6.0,97,0.09,,,0.13,Weather View 32 v70,2013-02-11 08:40:00,
2013-02-11 03:45:00,30.0,29.3,29.48,NE,45,0.0,6.0,97,0.09,,,0.14,Weather View 32 v70,2013-02-11 08:45:00,
2013-02-11 03:50:00,31.0,30.5,29.47,NE,45,2.0,6.0,98,0.10,,,0.15,Weather View 32 v70,2013-02-11 08:50:00,
2013-02-11 03:55:00,31.0,30.2,29.47,NE,45,0.0,6.0,97,0.10,,,0.16,Weather View 32 v70,2013-02-11 08:55:00,
2013-02-11 04:00:00,31.0,30.5,29.46,NE,45,0.0,6.0,98,0.11,,,0.17,Weather View 32 v70,2013-02-11 09:00:00,
2013-02-11 04:05:00,31.0,30.2,29.46,NE,45,0.0,6.0,97,0.10,,,0.17,Weather View 32 v70,2013-02-11 09:05:00,
2013-02-11 04:10:00,31.0,30.8,29.46,NE,45,0.0,6.0,99,0.10,,,0.18,Weather View 32 v70,2013-02-11 09:10:00,
2013-02-11 04:15:00,31.0,31.0,29.46,NE,45,0.0,6.0,100,0.10,,,0.19,Weather View 32 v70,2013-02-11 09:15:00,
2013-02-11 04:20:00,31.0,30.8,29.46,NW,315,0.0,5.0,99,0.10,,,0.19,Weather View 32 v70,2013-02-11 09:20:00,
2013-02-11 04:25:00,31.0,31.0,29.46,West,270,1.0,5.0,100,0.10,,,0.20,Weather View 32 v70,2013-02-11 09:25:00,
2013-02-11 04:30:00,31.0,31.0,29.45,West,270,1.0,5.0,100,0.09,,,0.20,Weather View 32 v70,2013-02-11 09:30:00,
2013-02-11 04:35:00,31.0,31.0,29.46,West,270,0.0,5.0,100,0.10,,,0.22,Weather View 32 v70,2013-02-11 09:35:00,
2013-02-11 04:40:00,31.0,31.0,29.45,West,270,0.0,5.0,100,0.11,,,0.24,Weather View 32 v70,2013-02-11 09:40:00,
2013-02-11 04:45:00,31.0,31.0,29.45,West,270,0.0,5.0,100,0.10,,,0.24,Weather View 32 v70,2013-02-11 09:45:00,
2013-02-11 04:50:00,31.0,31.0,29.44,West,270,0.0,5.0,100,0.10,,,0.25,Weather View 32 v70,2013-02-11 09:50:00,
2013-02-11 05:00:00,31.0,31.0,29.44,West,270,3.0,4.0,100,0.10,,,0.27,Weather View 32 v70,2013-02-11 10:00:00,
2013-02-11 05:05:00,31.0,30.8,29.44,West,270,0.0,5.0,99,0.10,,,0.27,Weather View 32 v70,2013-02-11 10:05:00,
2013-02-11 05:10:00,31.0,30.8,29.44,West,270,3.0,5.0,99,0.10,,,0.28,Weather View 32 v70,2013-02-11 10:10:00,
2013-02-11 05:20:00,31.0,30.5,29.43,West,270,0.0,5.0,98,0.10,,,0.29,Weather View 32 v70,2013-02-11 10:20:00,
2013-02-11 05:25:00,31.0,30.2,29.43,NW,315,2.0,6.0,97,0.09,,,0.29,Weather View 32 v70,2013-02-11 10:25:00,
2013-02-11 05:35:00,31.0,29.2,29.42,NW,315,0.0,7.0,93,0.08,,,0.30,Weather View 32 v70,2013-02-11 10:35:00,
2013-02-11 05:40:00,31.0,28.9,29.42,NNW,337,2.0,7.0,92,0.06,,,0.30,Weather View 32 v70,2013-02-11 10:40:00,
2013-02-11 05:50:00,31.0,27.9,29.42,NW,315,2.0,7.0,88,0.05,,,0.30,Weather View 32 v70,2013-02-11 10:50:00,
2013-02-11 05:55:00,31.0,28.4,29.41,WNW,292,0.0,7.0,90,0.05,,,0.30,Weather View 32 v70,2013-02-11 10:55:00,
2013-02-11 06:00:00,31.0,27.9,29.41,WNW,292,0.0,7.0,88,0.03,,,0.30,Weather View 32 v70,2013-02-11 11:00:00,
2013-02-11 06:05:00,31.0,27.6,29.41,WNW,292,0.0,7.0,87,0.03,,,0.30,Weather View 32 v70,2013-02-11 11:05:00,
2013-02-11 06:10:00,31.0,28.1,29.41,WNW,292,3.0,7.0,89,0.02,,,0.30,Weather View 32 v70,2013-02-11 11:10:00,
2013-02-11 06:15:00,31.0,27.6,29.40,WNW,292,0.0,7.0,87,0.02,,,0.30,Weather View 32 v70,2013-02-11 11:15:00,
2013-02-11 06:20:00,31.0,27.6,29.41,WNW,292,0.0,7.0,87,0.01,,,0.30,Weather View 32 v70,2013-02-11 11:20:00,
2013-02-11 06:25:00,31.0,27.0,29.41,NNE,22,3.0,7.0,85,0.01,,,0.30,Weather View 32 v70,2013-02-11 11:25:00,
2013-02-11 06:35:00,31.0,23.4,29.40,NE,45,5.0,6.0,73,0.00,,,0.30,Weather View 32 v70,2013-02-11 11:35:00,
2013-02-11 06:45:00,31.0,23.0,29.39,NE,45,1.0,7.0,72,0.01,,,0.31,Weather View 32 v70,2013-02-11 11:45:00,
2013-02-11 06:50:00,31.0,21.7,29.40,NE,45,4.0,7.0,68,0.01,,,0.31,Weather View 32 v70,2013-02-11 11:50:00,
2013-02-11 06:55:00,31.0,20.6,29.38,ENE,67,3.0,7.0,65,0.01,,,0.31,Weather View 32 v70,2013-02-11 11:55:00,
2013-02-11 07:00:00,31.0,19.5,29.38,ENE,67,1.0,7.0,62,0.01,,,0.31,Weather View 32 v70,2013-02-11 12:00:00,
2013-02-11 07:05:00,31.0,19.5,29.38,ENE,67,0.0,7.0,62,0.01,,,0.31,Weather View 32 v70,2013-02-11 12:05:00,
2013-02-11 07:10:00,32.0,19.7,29.38,ENE,67,0.0,7.0,60,0.01,,,0.31,Weather View 32 v70,2013-02-11 12:10:00,
2013-02-11 07:15:00,32.0,19.3,29.38,ENE,67,2.0,7.0,59,0.01,,,0.31,Weather View 32 v70,2013-02-11 12:15:00,
2013-02-11 07:25:00,32.0,18.9,29.38,SSE,157,2.0,7.0,58,0.01,,,0.31,Weather View 32 v70,2013-02-11 12:25:00,
2013-02-11 07:30:00,32.0,18.5,29.38,SSE,157,2.0,7.0,57,0.01,,,0.31,Weather View 32 v70,2013-02-11 12:30:00,
2013-02-11 07:35:00,32.0,17.2,29.37,ESE,112,6.0,7.0,54,0.01,,,0.31,Weather View 32 v70,2013-02-11 12:35:00,
2013-02-11 07:40:00,33.0,16.8,29.37,ESE,112,2.0,9.0,51,0.00,,,0.31,Weather View 32 v70,2013-02-11 12:40:00,
2013-02-11 07:45:00,33.0,16.8,29.37,SSE,157,2.0,9.0,51,0.00,,,0.31,Weather View 32 v70,2013-02-11 12:45:00,
2013-02-11 07:50:00,33.0,16.4,29.36,SSE,157,5.0,9.0,50,0.00,,,0.31,Weather View 32 v70,2013-02-11 12:50:00,
2013-02-11 07:55:00,33.0,14.5,29.36,SE,135,4.0,9.0,46,0.00,,,0.31,Weather View 32 v70,2013-02-11 12:55:00,
2013-02-11 08:05:00,34.0,13.3,29.36,SE,135,5.0,9.0,42,0.00,,,0.31,Weather View 32 v70,2013-02-11 13:05:00,
2013-02-11 08:10:00,34.0,13.3,29.36,SE,135,4.0,9.0,42,0.00,,,0.31,Weather View 32 v70,2013-02-11 13:10:00,
2013-02-11 08:15:00,34.0,12.8,29.36,SSW,202,7.0,9.0,41,0.00,,,0.31,Weather View 32 v70,2013-02-11 13:15:00,
2013-02-11 08:20:00,34.0,14.4,29.36,SE,135,4.0,9.0,44,0.00,,,0.31,Weather View 32 v70,2013-02-11 13:20:00,
2013-02-11 08:25:00,34.0,13.3,29.36,SE,135,6.0,9.0,42,0.00,,,0.31,Weather View 32 v70,2013-02-11 13:25:00,
2013-02-11 08:35:00,34.0,11.6,29.35,SE,135,5.0,11.0,39,0.00,,,0.31,Weather View 32 v70,2013-02-11 13:35:00,
2013-02-11 08:40:00,34.0,9.8,29.34,SSE,157,6.0,11.0,36,0.00,,,0.31,Weather View 32 v70,2013-02-11 13:40:00,
2013-02-11 08:50:00,34.0,8.6,29.34,SE,135,6.0,11.0,34,0.00,,,0.31,Weather View 32 v70,2013-02-11 13:50:00,
2013-02-11 08:55:00,35.0,10.1,29.34,SE,135,7.0,11.0,35,0.00,,,0.31,Weather View 32 v70,2013-02-11 13:55:00,
2013-02-11 09:00:00,35.0,10.7,29.34,SE,135,7.0,11.0,36,0.00,,,0.31,Weather View 32 v70,2013-02-11 14:00:00,
2013-02-11 09:05:00,35.0,8.1,29.34,ESE,112,7.0,11.0,32,0.00,,,0.31,Weather View 32 v70,2013-02-11 14:05:00,
2013-02-11 09:10:00,35.0,7.4,29.34,SE,135,4.0,11.0,31,0.00,,,0.31,Weather View 32 v70,2013-02-11 14:10:00,
2013-02-11 09:15:00,35.0,7.4,29.34,WSW,247,5.0,11.0,31,0.00,,,0.31,Weather View 32 v70,2013-02-11 14:15:00,
2013-02-11 09:20:00,35.0,7.4,29.34,NNW,337,1.0,11.0,31,0.00,,,0.31,Weather View 32 v70,2013-02-11 14:20:00,
2013-02-11 09:30:00,35.0,5.9,29.34,NNW,337,0.0,11.0,29,0.00,,,0.31,Weather View 32 v70,2013-02-11 14:30:00,
2013-02-11 09:35:00,35.0,5.9,29.34,West,270,1.0,9.0,29,0.00,,,0.31,Weather View 32 v70,2013-02-11 14:35:00,
2013-02-11 09:40:00,35.0,9.4,29.34,West,270,4.0,9.0,34,0.00,,,0.31,Weather View 32 v70,2013-02-11 14:40:00,
2013-02-11 09:45:00,35.0,7.4,29.33,WNW,292,5.0,9.0,31,0.00,,,0.31,Weather View 32 v70,2013-02-11 14:45:00,
2013-02-11 09:55:00,35.0,8.8,29.34,West,270,1.0,9.0,33,0.00,,,0.31,Weather View 32 v70,2013-02-11 14:55:00,
2013-02-11 10:00:00,35.0,8.1,29.33,NE,45,1.0,9.0,32,0.00,,,0.31,Weather View 32 v70,2013-02-11 15:00:00,
2013-02-11 10:10:00,36.0,6.8,29.32,WNW,292,0.0,7.0,29,0.00,,,0.31,Weather View 32 v70,2013-02-11 15:10:00,
2013-02-11 10:15:00,36.0,6.8,29.31,WNW,292,3.0,7.0,29,0.00,,,0.31,Weather View 32 v70,2013-02-11 15:15:00,
2013-02-11 10:25:00,36.0,11.0,29.31,WNW,292,4.0,7.0,35,0.00,,,0.31,Weather View 32 v70,2013-02-11 15:25:00,
2013-02-11 10:30:00,36.0,10.3,29.30,WNW,292,3.0,7.0,34,0.00,,,0.31,Weather View 32 v70,2013-02-11 15:30:00,
2013-02-11 10:35:00,37.0,12.5,29.31,WNW,292,4.0,7.0,36,0.00,,,0.31,Weather View 32 v70,2013-02-11 15:35:00,
2013-02-11 10:40:00,37.0,11.2,29.30,WNW,292,4.0,7.0,34,0.00,,,0.31,Weather View 32 v70,2013-02-11 15:40:00,
2013-02-11 10:50:00,38.0,10.0,29.30,West,270,0.0,7.0,31,0.00,,,0.31,Weather View 32 v70,2013-02-11 15:50:00,
2013-02-11 10:55:00,38.0,8.5,29.29,West,270,0.0,7.0,29,0.00,,,0.31,Weather View 32 v70,2013-02-11 15:55:00,
2013-02-11 11:05:00,38.0,10.0,29.29,West,270,1.0,7.0,31,0.00,,,0.31,Weather View 32 v70,2013-02-11 16:05:00,
2013-02-11 11:10:00,39.0,10.9,29.28,WNW,292,3.0,7.0,31,0.00,,,0.31,Weather View 32 v70,2013-02-11 16:10:00,
2013-02-11 11:15:00,39.0,11.6,29.28,West,270,0.0,7.0,32,0.00,,,0.31,Weather View 32 v70,2013-02-11 16:15:00,
2013-02-11 11:20:00,40.0,13.9,29.28,North,360,0.0,7.0,34,0.00,,,0.31,Weather View 32 v70,2013-02-11 16:20:00,
2013-02-11 11:25:00,40.0,12.5,29.28,North,360,1.0,7.0,32,0.00,,,0.31,Weather View 32 v70,2013-02-11 16:25:00,
2013-02-11 11:30:00,41.0,13.4,29.28,North,360,0.0,7.0,32,0.00,,,0.31,Weather View 32 v70,2013-02-11 16:30:00,
2013-02-11 11:40:00,41.0,15.4,29.27,WNW,292,0.0,6.0,35,0.00,,,0.31,Weather View 32 v70,2013-02-11 16:40:00,
2013-02-11 11:45:00,41.0,19.6,29.26,SW,225,0.0,6.0,42,0.00,,,0.31,Weather View 32 v70,2013-02-11 16:45:00,
2013-02-11 11:50:00,41.0,30.5,29.26,WSW,247,6.0,6.0,66,0.00,,,0.31,Weather View 32 v70,2013-02-11 16:50:00,
2013-02-11 12:00:00,41.0,34.7,29.24,WSW,247,4.0,6.0,78,0.00,,,0.31,Weather View 32 v70,2013-02-11 17:00:00,
2013-02-11 12:05:00,40.0,34.3,29.24,WSW,247,4.0,6.0,80,0.00,,,0.31,Weather View 32 v70,2013-02-11 17:05:00,
2013-02-11 12:10:00,41.0,35.3,29.24,ENE,67,3.0,6.0,80,0.00,,,0.31,Weather View 32 v70,2013-02-11 17:10:00,
2013-02-11 12:20:00,43.0,32.8,29.23,NNW,337,1.0,6.0,67,0.00,,,0.31,Weather View 32 v70,2013-02-11 17:20:00,
2013-02-11 12:25:00,43.0,36.3,29.22,WNW,292,3.0,6.0,77,0.00,,,0.31,Weather View 32 v70,2013-02-11 17:25:00,
2013-02-11 12:30:00,44.0,40.4,29.22,NW,315,6.0,7.0,87,0.00,,,0.31,Weather View 32 v70,2013-02-11 17:30:00,
2013-02-11 12:35:00,44.0,42.4,29.22,WNW,292,1.0,7.0,94,0.00,,,0.31,Weather View 32 v70,2013-02-11 17:35:00,
2013-02-11 12:40:00,45.0,43.4,29.21,NNE,22,0.0,7.0,94,0.00,,,0.31,Weather View 32 v70,2013-02-11 17:40:00,
2013-02-11 12:50:00,47.0,45.6,29.21,WNW,292,6.0,7.0,95,0.00,,,0.31,Weather View 32 v70,2013-02-11 17:50:00,
2013-02-11 12:55:00,47.0,45.4,29.20,NNE,22,0.0,7.0,94,0.00,,,0.31,Weather View 32 v70,2013-02-11 17:55:00,
2013-02-11 13:00:00,47.0,45.1,29.20,NNE,22,0.0,7.0,93,0.00,,,0.31,Weather View 32 v70,2013-02-11 18:00:00,
2013-02-11 13:05:00,47.0,44.5,29.20,NNE,22,0.0,7.0,91,0.00,,,0.31,Weather View 32 v70,2013-02-11 18:05:00,
2013-02-11 13:10:00,46.0,44.4,29.20,SE,135,8.0,8.0,94,0.00,,,0.31,Weather View 32 v70,2013-02-11 18:10:00,
2013-02-11 13:20:00,44.0,42.9,29.19,East,90,3.0,9.0,96,0.00,,,0.31,Weather View 32 v70,2013-02-11 18:20:00,
2013-02-11 13:25:00,44.0,42.9,29.18,SE,135,6.0,9.0,96,0.00,,,0.31,Weather View 32 v70,2013-02-11 18:25:00,
2013-02-11 13:30:00,44.0,42.9,29.18,SE,135,6.0,9.0,96,0.00,,,0.31,Weather View 32 v70,2013-02-11 18:30:00,
2013-02-11 13:35:00,44.0,42.9,29.18,SSE,157,3.0,9.0,96,0.00,,,0.31,Weather View 32 v70,2013-02-11 18:35:00,
2013-02-11 13:43:00,44.0,42.9,29.18,SSE,157,6.0,9.0,96,0.00,,,0.31,Weather View 32 v70,2013-02-11 18:43:00,
2013-02-11 13:50:00,45.0,43.7,29.17,East,90,5.0,10.0,95,0.00,,,0.31,Weather View 32 v70,2013-02-11 18:50:00,
2013-02-11 13:55:00,46.0,44.9,29.17,SE,135,4.0,11.0,96,0.00,,,0.31,Weather View 32 v70,2013-02-11 18:55:00,
2013-02-11 14:00:00,45.0,43.7,29.17,NE,45,8.0,11.0,95,0.00,,,0.31,Weather View 32 v70,2013-02-11 19:00:00,
2013-02-11 14:05:00,44.0,42.9,29.17,ESE,112,7.0,12.0,96,0.00,,,0.31,Weather View 32 v70,2013-02-11 19:05:00,
2013-02-11 14:10:00,45.0,43.9,29.16,ESE,112,5.0,12.0,96,0.00,,,0.31,Weather View 32 v70,2013-02-11 19:10:00,
2013-02-11 14:15:00,46.0,44.9,29.16,SE,135,5.0,12.0,96,0.00,,,0.31,Weather View 32 v70,2013-02-11 19:15:00,
2013-02-11 14:20:00,45.0,43.9,29.16,ESE,112,11.0,15.0,96,0.00,,,0.31,Weather View 32 v70,2013-02-11 19:20:00,
2013-02-11 14:25:00,45.0,43.9,29.16,ESE,112,17.0,17.0,96,0.00,,,0.31,Weather View 32 v70,2013-02-11 19:25:00,
2013-02-11 14:30:00,44.0,42.7,29.16,SE,135,13.0,17.0,95,0.00,,,0.31,Weather View 32 v70,2013-02-11 19:30:00,
2013-02-11 14:40:00,44.0,42.4,29.15,ESE,112,12.0,17.0,94,0.00,,,0.31,Weather View 32 v70,2013-02-11 19:40:00,
2013-02-11 14:45:00,45.0,43.4,29.15,SE,135,11.0,17.0,94,0.00,,,0.31,Weather View 32 v70,2013-02-11 19:45:00,
2013-02-11 14:50:00,45.0,43.4,29.14,SE,135,8.0,17.0,94,0.00,,,0.31,Weather View 32 v70,2013-02-11 19:50:00,
2013-02-11 14:55:00,45.0,43.4,29.14,SE,135,9.0,17.0,94,0.00,,,0.31,Weather View 32 v70,2013-02-11 19:55:00,
2013-02-11 15:00:00,45.0,43.7,29.14,ESE,112,10.0,17.0,95,0.00,,,0.31,Weather View 32 v70,2013-02-11 20:00:00,
2013-02-11 15:05:00,46.0,44.9,29.14,SE,135,10.0,17.0,96,0.00,,,0.31,Weather View 32 v70,2013-02-11 20:05:00,
2013-02-11 15:10:00,47.0,45.9,29.14,ESE,112,12.0,17.0,96,0.00,,,0.31,Weather View 32 v70,2013-02-11 20:10:00,
2013-02-11 15:15:00,47.0,45.9,29.13,SE,135,7.0,17.0,96,0.00,,,0.31,Weather View 32 v70,2013-02-11 20:15:00,
2013-02-11 15:20:00,47.0,45.9,29.14,SSE,157,10.0,17.0,96,0.00,,,0.31,Weather View 32 v70,2013-02-11 20:20:00,
2013-02-11 15:25:00,47.0,45.9,29.13,ESE,112,7.0,17.0,96,0.00,,,0.31,Weather View 32 v70,2013-02-11 20:25:00,
2013-02-11 15:35:00,47.0,45.9,29.13,ESE,112,8.0,17.0,96,0.00,,,0.31,Weather View 32 v70,2013-02-11 20:35:00,
2013-02-11 15:40:00,47.0,45.9,29.12,ESE,112,9.0,15.0,96,0.00,,,0.31,Weather View 32 v70,2013-02-11 20:40:00,
2013-02-11 15:45:00,47.0,45.9,29.12,SE,135,5.0,15.0,96,0.00,,,0.31,Weather View 32 v70,2013-02-11 20:45:00,
2013-02-11 15:50:00,47.0,45.9,29.12,East,90,5.0,14.0,96,0.00,,,0.31,Weather View 32 v70,2013-02-11 20:50:00,
2013-02-11 15:55:00,47.0,45.9,29.12,East,90,2.0,14.0,96,0.00,,,0.31,Weather View 32 v70,2013-02-11 20:55:00,
2013-02-11 16:00:00,47.0,45.6,29.12,NE,45,4.0,14.0,95,0.00,,,0.31,Weather View 32 v70,2013-02-11 21:00:00,
2013-02-11 16:05:00,47.0,45.4,29.11,SSE,157,4.0,14.0,94,0.00,,,0.31,Weather View 32 v70,2013-02-11 21:05:00,
2013-02-11 16:10:00,48.0,46.4,29.12,SE,135,5.0,14.0,94,0.00,,,0.31,Weather View 32 v70,2013-02-11 21:10:00,
2013-02-11 16:15:00,48.0,46.4,29.12,SE,135,6.0,14.0,94,0.00,,,0.31,Weather View 32 v70,2013-02-11 21:15:00,
2013-02-11 16:25:00,48.0,46.4,29.11,South,180,6.0,12.0,94,0.00,,,0.31,Weather View 32 v70,2013-02-11 21:25:00,
2013-02-11 16:30:00,48.0,46.4,29.11,SSW,202,2.0,12.0,94,0.00,,,0.31,Weather View 32 v70,2013-02-11 21:30:00,
2013-02-11 16:35:00,48.0,46.4,29.11,SE,135,6.0,11.0,94,0.00,,,0.31,Weather View 32 v70,2013-02-11 21:35:00,
2013-02-11 16:40:00,48.0,46.4,29.11,South,180,3.0,10.0,94,0.00,,,0.31,Weather View 32 v70,2013-02-11 21:40:00,
2013-02-11 16:50:00,49.0,47.3,29.10,South,180,6.0,9.0,94,0.00,,,0.31,Weather View 32 v70,2013-02-11 21:50:00,
2013-02-11 16:55:00,49.0,47.3,29.10,SE,135,6.0,9.0,94,0.00,,,0.31,Weather View 32 v70,2013-02-11 21:55:00,
2013-02-11 17:05:00,49.0,47.1,29.09,South,180,5.0,9.0,93,0.00,,,0.31,Weather View 32 v70,2013-02-11 22:05:00,
2013-02-11 17:10:00,49.0,47.1,29.09,SE,135,1.0,9.0,93,0.00,,,0.31,Weather View 32 v70,2013-02-11 22:10:00,
2013-02-11 17:15:00,49.0,46.8,29.09,SE,135,3.0,9.0,92,0.00,,,0.31,Weather View 32 v70,2013-02-11 22:15:00,
2013-02-11 17:20:00,48.0,46.4,29.09,SE,135,0.0,9.0,94,0.00,,,0.31,Weather View 32 v70,2013-02-11 22:20:00,
2013-02-11 17:25:00,47.0,44.8,29.09,NNW,337,1.0,9.0,92,0.00,,,0.31,Weather View 32 v70,2013-02-11 22:25:00,
2013-02-11 17:30:00,47.0,45.1,29.09,NW,315,0.0,9.0,93,0.00,,,0.31,Weather View 32 v70,2013-02-11 22:30:00,
2013-02-11 17:35:00,46.0,43.8,29.09,WNW,292,1.0,9.0,92,0.00,,,0.31,Weather View 32 v70,2013-02-11 22:35:00,
2013-02-11 17:45:00,45.0,43.4,29.09,WNW,292,0.0,9.0,94,0.00,,,0.31,Weather View 32 v70,2013-02-11 22:45:00,
2013-02-11 17:55:00,44.0,42.7,29.08,NW,315,0.0,9.0,95,0.00,,,0.31,Weather View 32 v70,2013-02-11 22:55:00,
2013-02-11 18:00:00,43.0,41.9,29.08,ESE,112,2.0,9.0,96,0.00,,,0.31,Weather View 32 v70,2013-02-11 23:00:00,
2013-02-11 18:05:00,43.0,41.7,29.08,SW,225,2.0,9.0,95,0.00,,,0.31,Weather View 32 v70,2013-02-11 23:05:00,
2013-02-11 18:10:00,43.0,41.4,29.08,West,270,1.0,6.0,94,0.00,,,0.31,Weather View 32 v70,2013-02-11 23:10:00,
2013-02-11 18:15:00,42.0,40.7,29.08,NE,45,3.0,6.0,95,0.00,,,0.31,Weather View 32 v70,2013-02-11 23:15:00,
2013-02-11 18:20:00,42.0,40.4,29.08,West,270,0.0,6.0,94,0.00,,,0.31,Weather View 32 v70,2013-02-11 23:20:00,
2013-02-11 18:25:00,41.0,39.4,29.08,West,270,0.0,6.0,94,0.00,,,0.31,Weather View 32 v70,2013-02-11 23:25:00,
2013-02-11 18:30:00,41.0,39.7,29.08,WNW,292,0.0,6.0,95,0.00,,,0.31,Weather View 32 v70,2013-02-11 23:30:00,
2013-02-11 18:35:00,40.0,38.7,29.08,NW,315,0.0,6.0,95,0.00,,,0.31,Weather View 32 v70,2013-02-11 23:35:00,
2013-02-11 18:45:00,39.0,37.1,29.08,NW,315,0.0,6.0,93,0.00,,,0.31,Weather View 32 v70,2013-02-11 23:45:00,
2013-02-11 18:55:00,39.0,36.3,29.08,South,180,1.0,6.0,90,0.00,,,0.31,Weather View 32 v70,2013-02-11 23:55:00,
2013-02-11 19:05:00,46.0,39.8,29.08,SW,225,10.0,18.0,79,0.00,,,0.31,Weather View 32 v70,2013-02-12 00:05:00,
2013-02-11 19:10:00,51.0,34.4,29.08,SSW,202,12.0,20.0,53,0.00,,,0.31,Weather View 32 v70,2013-02-12 00:10:00,
2013-02-11 19:15:00,53.0,35.3,29.09,SW,225,8.0,20.0,51,0.00,,,0.31,Weather View 32 v70,2013-02-12 00:15:00,
2013-02-11 19:20:00,55.0,34.6,29.09,SW,225,7.0,20.0,46,0.00,,,0.31,Weather View 32 v70,2013-02-12 00:20:00,
2013-02-11 19:30:00,56.0,32.6,29.09,SSW,202,15.0,20.0,41,0.00,,,0.31,Weather View 32 v70,2013-02-12 00:30:00,
2013-02-11 19:40:00,56.0,30.7,29.10,SW,225,10.0,20.0,38,0.00,,,0.31,Weather View 32 v70,2013-02-12 00:40:00,
2013-02-11 19:45:00,57.0,29.6,29.10,SW,225,10.0,20.0,35,0.00,,,0.31,Weather View 32 v70,2013-02-12 00:45:00,
2013-02-11 19:50:00,57.0,28.9,29.11,WSW,247,9.0,22.0,34,0.00,,,0.31,Weather View 32 v70,2013-02-12 00:50:00,
2013-02-11 20:00:00,58.0,27.5,29.11,SSW,202,13.0,30.0,31,0.01,,,0.32,Weather View 32 v70,2013-02-12 01:00:00,
2013-02-11 20:05:00,57.0,26.6,29.11,SW,225,15.0,30.0,31,0.01,,,0.32,Weather View 32 v70,2013-02-12 01:05:00,
2013-02-11 20:10:00,57.0,26.6,29.11,SW,225,15.0,30.0,31,0.01,,,0.32,Weather View 32 v70,2013-02-12 01:10:00,
2013-02-11 20:15:00,57.0,26.6,29.12,SSW,202,9.0,30.0,31,0.01,,,0.32,Weather View 32 v70,2013-02-12 01:15:00,
2013-02-11 20:20:00,57.0,27.4,29.12,SW,225,18.0,30.0,32,0.01,,,0.32,Weather View 32 v70,2013-02-12 01:20:00,
2013-02-11 20:30:00,57.0,26.6,29.12,SW,225,17.0,30.0,31,0.01,,,0.32,Weather View 32 v70,2013-02-12 01:30:00,
2013-02-11 20:35:00,56.0,26.5,29.13,WSW,247,12.0,30.0,32,0.01,,,0.32,Weather View 32 v70,2013-02-12 01:35:00,
2013-02-11 20:40:00,56.0,26.5,29.14,SW,225,12.0,30.0,32,0.01,,,0.32,Weather View 32 v70,2013-02-12 01:40:00,
2013-02-11 20:45:00,56.0,26.5,29.13,SSW,202,15.0,30.0,32,0.01,,,0.32,Weather View 32 v70,2013-02-12 01:45:00,
2013-02-11 20:55:00,56.0,25.7,29.14,SW,225,24.0,37.0,31,0.01,,,0.32,Weather View 32 v70,2013-02-12 01:55:00,
2013-02-11 21:05:00,56.0,26.5,29.15,SW,225,15.0,37.0,32,0.00,,,0.32,Weather View 32 v70,2013-02-12 02:05:00,
2013-02-11 21:10:00,56.0,27.2,29.15,WSW,247,8.0,37.0,33,0.00,,,0.32,Weather View 32 v70,2013-02-12 02:10:00,
2013-02-11 21:15:00,55.0,27.1,29.16,WSW,247,22.0,37.0,34,0.00,,,0.32,Weather View 32 v70,2013-02-12 02:15:00,
2013-02-11 21:20:00,54.0,28.9,29.15,West,270,15.0,37.0,38,0.00,,,0.32,Weather View 32 v70,2013-02-12 02:20:00,
2013-02-11 21:25:00,54.0,30.2,29.17,West,270,16.0,37.0,40,0.00,,,0.32,Weather View 32 v70,2013-02-12 02:25:00,
2013-02-11 21:30:00,53.0,30.5,29.16,WSW,247,19.0,37.0,42,0.00,,,0.32,Weather View 32 v70,2013-02-12 02:30:00,
2013-02-11 21:35:00,53.0,31.6,29.16,SW,225,17.0,37.0,44,0.00,,,0.32,Weather View 32 v70,2013-02-12 02:35:00,
2013-02-11 21:40:00,52.0,31.8,29.17,WNW,292,21.0,37.0,46,0.00,,,0.32,Weather View 32 v70,2013-02-12 02:40:00,
2013-02-11 21:45:00,52.0,32.4,29.18,WSW,247,12.0,37.0,47,0.00,,,0.32,Weather View 32 v70,2013-02-12 02:45:00,
2013-02-11 21:50:00,51.0,31.4,29.17,West,270,15.0,37.0,47,0.00,,,0.32,Weather View 32 v70,2013-02-12 02:50:00,
2013-02-11 21:55:00,51.0,32.0,29.18,West,270,17.0,35.0,48,0.00,,,0.32,Weather View 32 v70,2013-02-12 02:55:00,
2013-02-11 22:05:00,50.0,31.6,29.18,WSW,247,17.0,34.0,49,0.00,,,0.32,Weather View 32 v70,2013-02-12 03:05:00,
2013-02-11 22:10:00,50.0,32.6,29.18,WSW,247,19.0,34.0,51,0.00,,,0.32,Weather View 32 v70,2013-02-12 03:10:00,
2013-02-11 22:15:00,50.0,33.0,29.19,West,270,22.0,34.0,52,0.00,,,0.32,Weather View 32 v70,2013-02-12 03:15:00,
2013-02-11 22:20:00,49.0,32.6,29.19,West,270,9.0,34.0,53,0.00,,,0.32,Weather View 32 v70,2013-02-12 03:20:00,
2013-02-11 22:25:00,48.0,32.6,29.20,West,270,16.0,34.0,55,0.00,,,0.32,Weather View 32 v70,2013-02-12 03:25:00,
2013-02-11 22:30:00,48.0,33.5,29.18,West,270,13.0,34.0,57,0.00,,,0.32,Weather View 32 v70,2013-02-12 03:30:00,
2013-02-11 22:35:00,47.0,32.5,29.20,WSW,247,8.0,34.0,57,0.00,,,0.32,Weather View 32 v70,2013-02-12 03:35:00,
2013-02-11 22:40:00,47.0,33.0,29.20,West,270,13.0,34.0,58,0.00,,,0.32,Weather View 32 v70,2013-02-12 03:40:00,
2013-02-11 22:45:00,47.0,32.5,29.20,West,270,16.0,35.0,57,0.00,,,0.32,Weather View 32 v70,2013-02-12 03:45:00,
2013-02-11 22:50:00,47.0,32.5,29.20,West,270,15.0,35.0,57,0.00,,,0.32,Weather View 32 v70,2013-02-12 03:50:00,
2013-02-11 23:00:00,46.0,31.6,29.20,West,270,14.0,35.0,57,0.00,,,0.32,Weather View 32 v70,2013-02-12 04:00:00,
2013-02-11 23:05:00,46.0,31.6,29.20,West,270,19.0,35.0,57,0.00,,,0.32,Weather View 32 v70,2013-02-12 04:05:00,
2013-02-11 23:10:00,45.0,31.1,29.21,WNW,292,16.0,35.0,58,0.00,,,0.32,Weather View 32 v70,2013-02-12 04:10:00,
2013-02-11 23:15:00,45.0,30.7,29.21,West,270,21.0,35.0,57,0.00,,,0.32,Weather View 32 v70,2013-02-12 04:15:00,
2013-02-11 23:20:00,45.0,30.7,29.21,WNW,292,17.0,38.0,57,0.00,,,0.32,Weather View 32 v70,2013-02-12 04:20:00,
2013-02-11 23:25:00,45.0,30.7,29.21,West,270,17.0,38.0,57,0.00,,,0.32,Weather View 32 v70,2013-02-12 04:25:00,
2013-02-11 23:30:00,45.0,31.1,29.22,WSW,247,13.0,38.0,58,0.00,,,0.32,Weather View 32 v70,2013-02-12 04:30:00,
2013-02-11 23:35:00,45.0,30.7,29.21,SW,225,12.0,38.0,57,0.00,,,0.32,Weather View 32 v70,2013-02-12 04:35:00,
2013-02-11 23:40:00,44.0,30.2,29.22,NNW,337,6.0,38.0,58,0.00,,,0.32,Weather View 32 v70,2013-02-12 04:40:00,
2013-02-11 23:45:00,44.0,30.2,29.22,WSW,247,10.0,38.0,58,0.00,,,0.32,Weather View 32 v70,2013-02-12 04:45:00,
2013-02-11 23:55:00,44.0,31.0,29.22,WSW,247,8.0,38.0,60,0.00,,,0.32,Weather View 32 v70,2013-02-12 04:55:00,